Location: Dillon
(41.1766°N, 107.0923°W)
Time: 13:18:58
(UTC+00:00)

DIWATA 2B (PO-101) - Pass Details

Date: 30 June 2022
Orbit: 583 x 599 km, 98.0° (Epoch: 19 August)

Event Time Altitude Azimuth Distance (km) Brightness Sun altitude
Exits shadow 07:56:19 12° 100° (E) 1,820 ? -24.8°
Maximum altitude 07:58:33 17° 65° (ENE) 1,538 ? -24.8°
Drops below altitude 10° 08:01:17 10° 25° (NNE) 1,948 ? -24.7°
Sets 08:04:04 0° 5° (N) 2,856 ? -24.5°
